Date String (YYYY-MM-DD hh:mm:ss) UTC,Instrument flags,absolute air pressure of the measurement (hPa),sample flow rate (lpm),inlet stack bypass flow (lpm),air temperature of the measurement (°C),ambient temperature measured by the external sensor (°C),aerosol sample conditioner tube jacket temperature (°C),OPC LED temperature (°C),internal box temperature (°C),relative humidity of the measurement (%),span deviation,mass concentration of particles derived from Lorenz-Mie calculation of OPC scattering (μg/m³),mass concentration of particles derived from Lorenz-Mie calculation of OPC scattering (μg/m³),mass concentration of particles derived from Lorenz-Mie calculation of OPC scattering (μg/m³)
DateTimeUTC,F1_M11,P_M11,Q1_M11,Q2_M11,T1_M11,T2_M11,T3_M11,T4_M11,T5_M11,U1_M11,ZSPAN_M11,X0_M11,X2_M11,X1_M11
2023-08-10 13:00:00,SystemResetWarning,0829.4,5.00,000.00,029.8,028.6,000.0,038.4,031.4,23.7,0000.4,0012.95,0006.34,0005.62
2023-08-10 13:01:00,SystemResetWarning,0829.4,5.00,000.00,029.8,028.6,000.0,038.4,031.5,23.9,0000.0,0013.44,0006.35,0005.62
2023-08-10 13:02:00,SystemResetWarning,0829.5,5.01,000.00,029.9,028.6,000.0,038.5,031.5,24.0,0000.0,0013.87,0006.36,0005.62
2023-08-10 13:03:00,SystemResetWarning,0829.6,5.01,000.00,029.9,028.6,000.0,038.5,031.5,24.7,0000.0,0013.48,0006.37,0005.61
2023-08-10 13:04:00,SystemResetWarning,0829.5,5.00,000.00,029.9,028.6,000.0,038.5,031.5,24.6,0000.0,0012.27,0006.34,0005.61
2023-08-10 13:05:00,SystemResetWarning,0829.4,5.00,000.00,029.9,028.6,000.0,038.5,031.5,24.3,0000.0,0012.69,0006.32,0005.61
2023-08-10 13:06:00,SystemResetWarning,0829.4,5.01,000.00,029.9,028.6,000.0,038.5,031.5,23.8,0000.0,0012.85,0006.36,0005.61
2023-08-10 13:07:00,SystemResetWarning,0829.4,5.00,000.00,029.9,028.7,000.0,038.5,031.5,23.6,0000.0,0012.94,0006.38,0005.63
2023-08-10 13:08:00,SystemResetWarning,0829.4,5.00,000.00,030.0,028.7,000.0,038.5,031.6,23.5,0000.0,0013.03,0006.40,0005.65
2023-08-10 13:09:00,SystemResetWarning,0829.5,4.99,000.00,030.0,028.7,000.0,038.6,031.6,23.5,0000.1,0013.12,0006.45,0005.66
2023-08-10 13:10:00,SystemResetWarning,0829.5,5.00,000.00,030.0,028.8,000.0,038.6,031.6,23.4,0000.3,0012.93,0006.47,0005.67
2023-08-10 13:11:00,SystemResetWarning,0829.6,5.00,000.00,030.0,028.8,000.0,038.6,031.6,23.3,0000.0,0012.37,0006.44,0005.68
2023-08-10 13:12:00,SystemResetWarning,0829.6,5.00,000.00,030.0,028.8,000.0,038.6,031.6,23.3,0000.0,0011.82,0006.43,0005.69
2023-08-10 13:13:00,SystemResetWarning,0829.6,5.00,000.00,030.0,028.8,000.0,038.6,031.7,23.2,0000.0,0011.37,0006.46,0005.72
2023-08-10 13:14:00,SystemResetWarning,0829.5,5.00,000.00,030.0,028.8,000.0,038.6,031.7,23.3,0000.0,0011.08,0006.47,0005.74
2023-08-10 13:15:00,SystemResetWarning,0829.5,4.99,000.00,030.1,028.8,000.0,038.7,031.7,23.4,0000.0,0010.95,0006.48,0005.75
2023-08-10 13:16:00,SystemResetWarning,0829.5,4.99,000.00,030.1,028.9,000.0,038.7,031.7,23.7,0000.0,0011.34,0006.51,0005.76
2023-08-10 13:17:00,SystemResetWarning,0829.6,4.99,000.00,030.1,027.7,000.0,038.6,031.6,23.9,0000.0,0012.24,0006.53,0005.78
2023-08-10 13:18:00,SystemResetWarning,0829.7,5.00,000.00,030.0,025.9,000.0,038.4,031.3,24.0,0000.0,0012.66,0006.48,0005.77
2023-08-10 13:19:00,SystemResetWarning,0829.7,5.01,000.00,029.9,025.6,000.0,038.3,031.1,24.2,0000.0,0012.93,0006.48,0005.77
2023-08-10 13:20:00,SystemResetWarning,0829.7,5.01,000.00,029.8,025.8,000.0,038.4,030.9,24.2,0000.0,0013.48,0006.47,0005.79
2023-08-10 13:21:00,SystemResetWarning,0829.7,4.99,000.00,029.7,026.2,000.0,038.4,031.0,24.0,0000.0,0013.59,0006.49,0005.80
2023-08-10 13:22:00,SystemResetWarning,0829.7,5.00,000.00,029.7,026.6,000.0,038.4,031.0,24.0,0000.0,0013.68,0006.53,0005.79
2023-08-10 13:23:00,SystemResetWarning,0829.7,5.00,000.00,029.7,027.0,000.0,038.4,031.1,24.1,0000.0,0013.96,0006.57,0005.80
2023-08-10 13:24:00,SystemResetWarning,0829.7,5.00,000.00,029.7,027.3,000.0,038.4,031.2,24.1,0000.0,0013.98,0006.58,0005.79
2023-08-10 13:25:00,SystemResetWarning,0829.7,5.00,000.00,029.7,027.5,000.0,038.4,031.2,24.1,0000.0,0014.30,0006.56,0005.78
2023-08-10 13:26:00,SystemResetWarning,0829.8,5.00,000.00,029.7,027.7,000.0,038.4,031.2,24.1,0000.5,0014.28,0006.53,0005.78
2023-08-10 13:27:00,SystemResetWarning,0829.8,4.99,000.00,029.7,027.9,000.0,038.4,031.3,24.1,0000.3,0014.64,0006.51,0005.77
2023-08-10 13:28:00,SystemResetWarning,0829.8,5.00,000.00,029.7,028.0,000.0,038.4,031.3,24.1,0001.0,0013.89,0006.51,0005.77
2023-08-10 13:29:00,SystemResetWarning,0829.8,5.02,000.00,029.7,028.2,000.0,038.4,031.3,24.1,0001.0,0013.18,0006.51,0005.77
2023-08-10 13:30:00,SystemResetWarning,0829.8,5.00,000.00,029.7,028.3,000.0,038.4,031.4,24.1,0000.7,0013.04,0006.49,0005.77
2023-08-10 13:31:00,SystemResetWarning,0829.8,5.00,000.00,029.8,028.4,000.0,038.4,031.4,24.0,0000.2,0012.72,0006.42,0005.75
2023-08-10 13:32:00,SystemResetWarning,0829.7,4.99,000.00,029.8,028.4,000.0,038.4,031.4,23.8,0000.2,0012.81,0006.39,0005.74
2023-08-10 13:33:00,SystemResetWarning,0829.8,4.99,000.00,029.8,028.5,000.0,038.4,031.4,23.7,0000.4,0013.24,0006.36,0005.74
2023-08-10 13:34:00,SystemResetWarning,0829.8,5.00,000.00,029.8,028.6,000.0,038.4,031.5,23.7,0000.5,0013.12,0006.35,0005.73
2023-08-10 13:35:00,SystemResetWarning,0829.8,5.00,000.00,029.8,028.6,000.0,038.4,031.5,24.4,0000.4,0013.45,0006.36,0005.73
2023-08-10 13:36:00,SystemResetWarning,0829.8,5.00,000.00,029.9,028.7,000.0,038.5,031.5,24.1,0000.3,0013.15,0006.36,0005.73
2023-08-10 13:37:00,SystemResetWarning,0829.9,5.00,000.00,029.9,028.7,000.0,038.5,031.5,24.1,0000.4,0013.03,0006.35,0005.73
2023-08-10 13:38:00,SystemResetWarning,0830.0,5.00,000.00,029.9,028.7,000.0,038.5,031.6,24.9,0000.1,0012.31,0006.35,0005.73
2023-08-10 13:39:00,SystemResetWarning,0830.0,5.01,000.00,029.9,028.8,000.0,038.5,031.6,24.9,0000.2,0011.99,0006.33,0005.73
2023-08-10 13:40:00,SystemResetWarning,0830.0,5.00,000.00,030.0,028.8,000.0,038.5,031.6,25.3,-000.1,0012.39,0006.32,0005.72
2023-08-10 13:41:00,SystemResetWarning,0830.0,5.00,000.00,030.0,028.8,000.0,038.6,031.6,24.9,-000.3,0013.57,0006.31,0005.72
2023-08-10 13:42:00,SystemResetWarning,0830.0,4.99,000.00,030.0,027.8,000.0,038.5,031.5,24.3,-000.2,0012.98,0006.34,0005.72
2023-08-10 13:43:00,SystemResetWarning,0830.0,5.01,000.00,029.9,026.1,000.0,038.3,031.3,23.9,-000.7,0012.78,0006.33,0005.72
2023-08-10 13:44:00,SystemResetWarning,0830.0,5.01,000.00,029.9,025.7,000.0,038.2,031.1,23.7,-001.0,0013.13,0006.35,0005.72
2023-08-10 13:45:00,SystemResetWarning,0830.0,5.00,000.00,029.7,025.9,000.0,038.3,030.9,23.8,-000.7,0013.10,0006.37,0005.73
2023-08-10 13:46:00,SystemResetWarning,0830.0,5.00,000.00,029.7,026.3,000.0,038.3,031.0,23.9,-000.3,0013.15,0006.33,0005.72
2023-08-10 13:47:00,SystemResetWarning,0830.0,5.00,000.00,029.7,026.6,000.0,038.3,031.0,24.0,-000.1,0013.43,0006.31,0005.73
2023-08-10 13:48:00,SystemResetWarning,0830.0,5.00,000.00,029.6,027.0,000.0,038.3,031.1,23.8,0000.2,0013.58,0006.33,0005.74
2023-08-10 13:49:00,SystemResetWarning,0830.0,5.00,000.00,029.6,027.3,000.0,038.3,031.1,24.1,0000.0,0013.48,0006.31,0005.74
2023-08-10 13:50:00,SystemResetWarning,0830.0,5.00,000.00,029.6,027.5,000.0,038.3,031.2,24.2,0000.0,0013.48,0006.32,0005.74
2023-08-10 13:51:00,SystemResetWarning,0830.1,5.00,000.00,029.7,027.7,000.0,038.3,031.2,24.2,0000.0,0013.10,0006.36,0005.74
2023-08-10 13:52:00,SystemResetWarning,0830.0,5.00,000.00,029.7,027.9,000.0,038.3,031.2,24.3,0000.0,0012.06,0006.41,0005.75
2023-08-10 13:53:00,SystemResetWarning,0830.1,5.01,000.00,029.7,028.0,000.0,038.3,031.3,24.1,0000.0,0012.56,0006.44,0005.76
2023-08-10 13:54:00,SystemResetWarning,0830.1,5.00,000.00,029.7,028.2,000.0,038.3,031.3,23.9,0000.0,0012.53,0006.46,0005.76
2023-08-10 13:55:00,SystemResetWarning,0830.1,4.99,000.00,029.7,028.3,000.0,038.3,031.3,23.7,0000.0,0011.94,0006.48,0005.76
2023-08-10 13:56:00,SystemResetWarning,0830.1,4.99,000.00,029.7,028.3,000.0,038.3,031.3,23.6,0000.0,0012.37,0006.45,0005.74
2023-08-10 13:57:00,SystemResetWarning,0830.1,5.00,000.00,029.7,028.4,000.0,038.4,031.4,23.4,0000.0,0012.77,0006.45,0005.75
2023-08-10 13:58:00,SystemResetWarning,0830.1,5.01,000.00,029.8,028.5,000.0,038.4,031.4,23.2,0000.0,0012.57,0006.46,0005.74
2023-08-10 13:59:00,SystemResetWarning,0830.1,5.01,000.00,029.8,028.5,000.0,038.4,031.4,23.3,0000.0,0012.44,0006.45,0005.72
